CW6132 Weather Reports


Display with metric or nautical units.
time (UTC)temp
F
wind
direction
speed
MPH
gust
MPH
rain 1hr
in
rain 24hr
in
rain mn
in
humidity
%
barometer
mb
20210925014131 75 158 2.0 6.0 0.00 0.00 0.00 53 1017.9
20210925013631 75 158 3.0 7.0 0.00 0.00 0.00 52 1017.9
20210925013130 75 180 4.0 7.0 0.00 0.00 0.00 52 1017.9
20210925012630 76 158 3.0 6.0 0.00 0.00 0.00 51 1017.9
20210925012130 76 180 3.0 6.0 0.00 0.00 0.00 51 1017.9
20210925011630 76 135 1.0 5.0 0.00 0.00 0.00 50 1017.9
20210925011130 76 135 5.0 5.0 0.00 0.00 0.00 50 1017.9
20210925010630 76 113 3.0 5.0 0.00 0.00 0.00 49 1017.9
20210925010130 77 158 4.0 5.0 0.00 0.00 0.00 49 1017.9
20210925005630 77 158 2.0 6.0 0.00 0.00 0.00 48 1017.9
20210925005129 77 135 4.0 6.0 0.00 0.00 0.00 48 1017.9
20210925004629 77 158 3.0 5.0 0.00 0.00 0.00 48 1017.9
20210925004159 77 180 2.0 7.0 0.00 0.00 0.00 48 1017.9
20210925003629 77 113 4.0 7.0 0.00 0.00 0.00 47 1017.9
20210925003159 77 113 7.0 7.0 0.00 0.00 0.00 47 1017.9
20210925002629 77 180 5.0 8.0 0.00 0.00 0.00 46 1017.9
20210925002128 78 135 2.0 8.0 0.00 0.00 0.00 46 1017.9
20210925001629 78 180 3.0 6.0 0.00 0.00 0.00 46 1017.9
20210925001159 78 135 3.0 6.0 0.00 0.00 0.00 46 1017.9
20210925000659 78 225 3.0 6.0 0.00 0.00 0.00 46 1017.9
20210925000158 78 90 2.0 6.0 0.00 0.00 0.00 45 1017.9
20210924235658 78 180 3.0 7.0 0.00 0.00 0.00 45 1017.9
20210924235157 79 135 3.0 7.0 0.00 0.00 0.00 45 1017.9
20210924234657 79 135 2.0 9.0 0.00 0.00 0.00 45 1017.9
20210924234157 79 180 2.0 9.0 0.00 0.00 0.00 44 1017.9
20210924233657 79 225 1.0 9.0 0.00 0.00 0.00 45 1017.9
20210924233157 79 180 3.0 8.0 0.00 0.00 0.00 44 1017.9
20210924232657 79 180 1.0 7.0 0.00 0.00 0.00 43 1017.9
20210924232157 80 270 3.0 6.0 0.00 0.00 0.00 43 1017.9
20210924231657 80 180 3.0 7.0 0.00 0.00 0.00 44 1017.9
20210924231157 80 113 1.0 8.0 0.00 0.00 0.00 43 1017.9
20210924230657 80 248 3.0 10.0 0.00 0.00 0.00 42 1017.9
20210924230156 80 225 3.0 10.0 0.00 0.00 0.00 42 1017.9
20210924225656 80 158 4.0 8.0 0.00 0.00 0.00 42 1017.9
20210924225157 80 203 4.0 8.0 0.00 0.00 0.00 42 1017.9
20210924224656 80 203 3.0 11.0 0.00 0.00 0.00 42 1017.9
20210924224156 80 113 3.0 11.0 0.00 0.00 0.00 41 1017.9
20210924223655 80 135 5.0 10.0 0.00 0.00 0.00 40 1017.9
20210924223156 80 158 6.0 10.0 0.00 0.00 0.00 40 1017.9
20210924222655 81 135 5.0 10.0 0.00 0.00 0.00 39 1017.9
20210924222155 81 45 3.0 10.0 0.00 0.00 0.00 40 1017.9
20210924221655 81 113 6.0 10.0 0.00 0.00 0.00 39 1017.9
20210924221155 81 113 3.0 8.0 0.00 0.00 0.00 40 1017.9
20210924220655 81 158 4.0 7.0 0.00 0.00 0.00 40 1017.9
20210924220155 81 203 3.0 11.0 0.00 0.00 0.00 40 1017.9
20210924215654 81 135 6.0 11.0 0.00 0.00 0.00 38 1017.9
20210924215154 81 113 3.0 9.0 0.00 0.00 0.00 40 1017.9
20210924214654 81 158 4.0 10.0 0.00 0.00 0.00 39 1017.9
20210924214154 81 158 8.0 10.0 0.00 0.00 0.00 40 1017.9
20210924213654 81 68 3.0 10.0 0.00 0.00 0.00 39 1017.9
20210924213153 81 113 5.0 10.0 0.00 0.00 0.00 39 1017.9
20210924212654 81 68 3.0 10.0 0.00 0.00 0.00 40 1017.9
20210924212154 81 180 2.0 10.0 0.00 0.00 0.00 40 1017.9
20210924211654 81 68 6.0 10.0 0.00 0.00 0.00 39 1017.9
20210924211153 81 23 1.0 8.0 0.00 0.00 0.00 39 1017.6
20210924210653 81 90 7.0 10.0 0.00 0.00 0.00 39 1017.9
20210924210153 81 45 3.0 16.0 0.00 0.00 0.00 38 1017.9
20210924205653 81 90 7.0 16.0 0.00 0.00 0.00 38 1017.9
20210924205153 81 158 2.0 8.0 0.00 0.00 0.00 37 1017.9
20210924204653 81 203 3.0 10.0 0.00 0.00 0.00 39 1017.9
20210924204152 81 135 6.0 10.0 0.00 0.00 0.00 38 1017.9
20210924203652 81 113 7.0 10.0 0.00 0.00 0.00 39 1017.9
20210924203152 81 113 3.0 10.0 0.00 0.00 0.00 39 1017.9
20210924202652 81 68 3.0 10.0 0.00 0.00 0.00 39 1017.9
20210924202152 81 203 4.0 10.0 0.00 0.00 0.00 40 1017.9
20210924201651 81 158 3.0 13.0 0.00 0.00 0.00 37 1017.9
20210924201151 81 135 8.0 13.0 0.00 0.00 0.00 38 1017.9
20210924200651 81 180 1.0 11.0 0.00 0.00 0.00 39 1017.9
20210924200151 81 135 8.0 12.0 0.00 0.00 0.00 37 1018.3
20210924195651 81 90 5.0 12.0 0.00 0.00 0.00 38 1018.3
20210924195152 81 90 4.0 11.0 0.00 0.00 0.00 39 1018.3
20210924194650 81 135 3.0 11.0 0.00 0.00 0.00 38 1018.3
20210924194151 81 113 4.0 11.0 0.00 0.00 0.00 37 1018.3
20210924193650 81 135 5.0 10.0 0.00 0.00 0.00 40 1018.3
20210924193150 81 68 2.0 10.0 0.00 0.00 0.00 39 1018.3
20210924192651 81 180 4.0 11.0 0.00 0.00 0.00 40 1018.3
20210924192150 81 45 5.0 11.0 0.00 0.00 0.00 40 1018.3
20210924191650 81 180 7.0 11.0 0.00 0.00 0.00 39 1018.3
20210924191150 81 23 3.0 13.0 0.00 0.00 0.00 41 1018.6
20210924190649 81 45 7.0 13.0 0.00 0.00 0.00 41 1018.6
20210924190150 81 338 2.0 10.0 0.00 0.00 0.00 41 1018.6
20210924185649 81 90 2.0 10.0 0.00 0.00 0.00 41 1018.6
20210924185149 81 68 3.0 11.0 0.00 0.00 0.00 42 1018.6
20210924184649 81 113 3.0 11.0 0.00 0.00 0.00 41 1018.6
20210924184150 81 0 4.0 10.0 0.00 0.00 0.00 41 1018.6
20210924183648 81 90 3.0 10.0 0.00 0.00 0.00 41 1019.0
20210924183149 81 90 3.0 7.0 0.00 0.00 0.00 41 1019.0
20210924182648 81 68 3.0 12.0 0.00 0.00 0.00 40 1019.0
20210924182148 81 90 5.0 12.0 0.00 0.00 0.00 41 1019.0
20210924181648 81 68 7.0 10.0 0.00 0.00 0.00 41 1019.0
20210924181148 81 90 3.0 10.0 0.00 0.00 0.00 40 1019.0
20210924180648 81 225 5.0 9.0 0.00 0.00 0.00 41 1019.0
20210924180148 81 135 3.0 9.0 0.00 0.00 0.00 41 1019.3
20210924175647 81 113 2.0 11.0 0.00 0.00 0.00 43 1019.3
20210924175148 81 135 3.0 11.0 0.00 0.00 0.00 42 1019.3
20210924174648 81 180 8.0 9.0 0.00 0.00 0.00 43 1019.3
20210924174148 81 135 6.0 9.0 0.00 0.00 0.00 44 1019.6
20210924173647 80 113 5.0 8.0 0.00 0.00 0.00 42 1019.3
20210924173147 80 68 4.0 9.0 0.00 0.00 0.00 46 1019.6
20210924172647 80 68 5.0 10.0 0.00 0.00 0.00 45 1019.6
20210924172146 80 135 5.0 10.0 0.00 0.00 0.00 45 1019.3
20210924171646 80 113 5.0 8.0 0.00 0.00 0.00 47 1019.6
20210924171146 80 45 4.0 11.0 0.00 0.00 0.00 46 1019.6
20210924170646 80 135 7.0 11.0 0.00 0.00 0.00 44 1019.6
20210924170146 81 90 2.0 10.0 0.00 0.00 0.00 46 1019.6
20210924165646 81 68 10.0 11.0 0.00 0.00 0.00 47 1019.6
20210924165145 81 135 8.0 11.0 0.00 0.00 0.00 43 1020.0
20210924164645 80 203 5.0 8.0 0.00 0.00 0.00 49 1019.6
20210924164145 80 180 3.0 8.0 0.00 0.00 0.00 46 1020.0
20210924163645 80 180 3.0 8.0 0.00 0.00 0.00 50 1020.0
20210924163145 80 135 4.0 6.0 0.00 0.00 0.00 50 1020.0
20210924162645 80 158 1.0 10.0 0.00 0.00 0.00 50 1020.0
20210924162145 79 203 2.0 11.0 0.00 0.00 0.00 49 1020.0
20210924161644 79 68 4.0 11.0 0.00 0.00 0.00 50 1020.0
20210924161144 79 90 3.0 10.0 0.00 0.00 0.00 51 1019.6
20210924160644 79 90 8.0 10.0 0.00 0.00 0.00 51 1019.6
20210924160144 78 0 2.0 9.0 0.00 0.00 0.00 53 1019.6
20210924155644 78 158 5.0 9.0 0.00 0.00 0.00 52 1019.6
20210924155143 77 90 1.0 10.0 0.00 0.00 0.00 53 1019.6
20210924154644 77 113 6.0 10.0 0.00 0.00 0.00 54 1019.6
20210924154143 76 68 8.0 11.0 0.00 0.00 0.00 53 1019.6
20210924153643 76 113 3.0 11.0 0.00 0.00 0.00 54 1019.6
20210924153143 76 68 7.0 10.0 0.00 0.00 0.00 56 1019.6
20210924152643 75 180 1.0 9.0 0.00 0.00 0.00 57 1019.6
20210924152143 75 90 3.0 11.0 0.00 0.00 0.00 59 1019.6
20210924151643 74 68 6.0 11.0 0.00 0.00 0.00 60 1019.6
20210924151142 74 45 6.0 9.0 0.00 0.00 0.00 60 1019.6
20210924150642 73 68 3.0 10.0 0.00 0.00 0.00 60 1019.6
20210924150142 73 270 1.0 10.0 0.00 0.00 0.00 62 1019.6
20210924145643 73 68 3.0 10.0 0.00 0.00 0.00 64 1019.6
20210924145142 72 68 6.0 9.0 0.00 0.00 0.00 65 1019.3
20210924144642 72 45 4.0 10.0 0.00 0.00 0.00 66 1019.3
20210924144143 72 45 7.0 10.0 0.00 0.00 0.00 69 1019.3
20210924143643 71 90 5.0 8.0 0.00 0.00 0.00 69 1019.3
20210924143141 71 0 4.0 9.0 0.00 0.00 0.00 70 1019.3
20210924142641 71 113 5.0 9.0 0.00 0.00 0.00 71 1019.3
20210924142141 70 90 5.0 8.0 0.00 0.00 0.00 70 1019.3
20210924141641 70 113 1.0 8.0 0.00 0.00 0.00 73 1019.0
20210924141141 69 203 1.0 8.0 0.00 0.00 0.00 74 1019.0
20210924140641 68 90 3.0 8.0 0.00 0.00 0.00 77 1019.0
20210924140140 68 90 5.0 7.0 0.00 0.00 0.00 78 1019.0
20210924135640 67 68 2.0 3.0 0.00 0.00 0.00 81 1019.0
20210924135140 66 158 1.0 3.0 0.00 0.00 0.00 81 1019.0
20210924134640 66 0 1.0 3.0 0.00 0.00 0.00 82 1019.0
20210924134140 65 203 0.0 3.0 0.00 0.00 0.00 82 1019.0
20210924133640 65 338 1.0 3.0 0.00 0.00 0.00 82 1019.0
20210924133140 65 0 1.0 3.0 0.00 0.00 0.00 83 1019.0
20210924132640 64 68 3.0 3.0 0.00 0.00 0.00 83 1019.0
20210924132139 64 68 2.0 3.0 0.00 0.00 0.00 83 1019.0
20210924131640 63 23 2.0 3.0 0.00 0.00 0.00 84 1019.0
20210924131139 63 23 1.0 3.0 0.00 0.00 0.00 84 1019.0
20210924130639 63 45 1.0 3.0 0.00 0.00 0.00 85 1019.3
20210924130139 63 0 1.0 3.0 0.00 0.00 0.00 85 1019.3
20210924125639 63 293 1.0 3.0 0.00 0.00 0.00 85 1019.3
20210924125138 63 338 1.0 3.0 0.00 0.00 0.00 85 1019.3
20210924124638 63 225 1.0 2.0 0.00 0.00 0.00 85 1019.0
20210924124138 63 113 0.0 1.0 0.00 0.00 0.00 85 1019.0
20210924123638 63 180 0.0 1.0 0.00 0.00 0.00 84 1019.0
20210924123138 63 180 0.0 1.0 0.00 0.00 0.00 84 1019.0
20210924122638 63 203 0.0 2.0 0.00 0.00 0.00 84 1018.6
20210924122138 63 315 0.0 3.0 0.00 0.00 0.00 84 1018.6
20210924121638 63 45 1.0 3.0 0.00 0.00 0.00 84 1018.6
20210924121137 63 180 1.0 3.0 0.00 0.00 0.00 84 1018.6
20210924120637 63 68 2.0 3.0 0.00 0.00 0.00 84 1018.6
20210924120137 63 45 2.0 2.0 0.00 0.00 0.00 84 1018.3
20210924115637 62 315 1.0 2.0 0.00 0.00 0.00 84 1018.3
20210924115137 63 315 1.0 2.0 0.00 0.00 0.00 84 1018.3
20210924114637 63 270 0.0 0.0 0.00 0.00 0.00 83 1018.3
20210924114136 63 180 0.0 0.0 0.00 0.00 0.00 83 1018.3
20210924113636 63 203 0.0 0.0 0.00 0.00 0.00 83 1018.3
20210924113137 63 293 0.0 0.0 0.00 0.00 0.00 82 1018.3
20210924112636 63 158 0.0 0.0 0.00 0.00 0.00 82 1018.3
20210924112136 63 203 0.0 0.0 0.00 0.00 0.00 82 1018.3
20210924111635 63 203 0.0 0.0 0.00 0.00 0.00 83 1018.3
20210924111136 63 113 0.0 0.0 0.00 0.00 0.00 82 1017.9
20210924110635 63 90 0.0 0.0 0.00 0.00 0.00 82 1017.9
20210924110135 63 90 0.0 0.0 0.00 0.00 0.00 83 1017.9
20210924105635 63 68 0.0 0.0 0.00 0.00 0.00 82 1017.9
20210924105135 63 68 0.0 0.0 0.00 0.00 0.00 82 1017.9
20210924104635 63 68 0.0 0.0 0.00 0.00 0.00 82 1017.9
20210924104135 63 68 0.0 0.0 0.00 0.00 0.00 81 1017.6
20210924103634 63 90 0.0 0.0 0.00 0.00 0.00 81 1017.6
20210924103134 63 158 0.0 0.0 0.00 0.00 0.00 81 1017.6
20210924102634 63 158 0.0 0.0 0.00 0.00 0.00 81 1017.9
20210924102134 63 158 0.0 0.0 0.00 0.00 0.00 81 1017.9
20210924101634 63 158 0.0 0.0 0.00 0.00 0.00 81 1017.9
20210924101134 63 158 0.0 0.0 0.00 0.00 0.00 80 1017.6
20210924100634 63 225 0.0 0.0 0.00 0.00 0.00 80 1017.6
20210924100134 63 270 0.0 0.0 0.00 0.00 0.00 80 1017.6
20210924095634 63 293 0.0 0.0 0.00 0.00 0.00 79 1017.6
20210924095133 63 315 0.0 0.0 0.00 0.00 0.00 79 1017.6
20210924094633 63 270 0.0 0.0 0.00 0.00 0.00 80 1017.6
20210924094133 63 293 0.0 0.0 0.00 0.00 0.00 79 1017.6
20210924093633 64 293 0.0 0.0 0.00 0.00 0.00 79 1017.6
20210924093133 64 293 0.0 0.0 0.00 0.00 0.00 79 1017.6
20210924084131 64 180 0.0 0.0 0.00 0.00 0.00 76 1017.6
20210924083631 65 180 0.0 0.0 0.00 0.00 0.00 76 1017.6
20210924083131 65 180 0.0 0.0 0.00 0.00 0.00 76 1017.6
20210924082630 65 180 0.0 0.0 0.00 0.00 0.00 75 1017.6
20210924082131 65 203 0.0 0.0 0.00 0.00 0.00 75 1017.6
20210924081630 65 203 0.0 0.0 0.00 0.00 0.00 74 1017.6
20210924081130 65 203 0.0 0.0 0.00 0.00 0.00 74 1017.6
20210924080630 65 203 0.0 0.0 0.00 0.00 0.00 74 1017.6
20210924080130 65 225 0.0 0.0 0.00 0.00 0.00 73 1017.9
20210924075630 65 225 0.0 0.0 0.00 0.00 0.00 73 1017.9
20210924075200 65 225 0.0 0.0 0.00 0.00 0.00 73 1017.6
20210924074629 66 248 0.0 0.0 0.00 0.00 0.00 73 1017.9
20210924074129 66 225 0.0 0.0 0.00 0.00 0.00 72 1017.9
20210924073700 66 270 0.0 0.0 0.00 0.00 0.00 72 1017.9
20210924073159 66 248 0.0 0.0 0.00 0.00 0.00 72 1017.9
20210924072659 66 248 0.0 0.0 0.00 0.00 0.00 71 1017.9
20210924072159 66 248 0.0 0.0 0.00 0.00 0.00 71 1017.9
20210924071659 66 225 0.0 0.0 0.00 0.00 0.00 71 1017.9
20210924071158 67 203 0.0 0.0 0.00 0.00 0.00 70 1017.9
20210924070659 67 315 0.0 0.0 0.00 0.00 0.00 70 1017.6
20210924070158 67 45 0.0 0.0 0.00 0.00 0.00 69 1017.9
20210924065659 67 45 0.0 1.0 0.00 0.00 0.00 69 1017.6
20210924065158 67 135 0.0 2.0 0.00 0.00 0.00 68 1017.6
20210924064658 67 135 1.0 2.0 0.00 0.00 0.00 68 1017.6
20210924064158 67 135 1.0 1.0 0.00 0.00 0.00 68 1017.6
20210924063657 67 158 0.0 1.0 0.00 0.00 0.00 68 1017.6
20210924063157 68 203 0.0 2.0 0.00 0.00 0.00 67 1017.6
20210924062658 68 293 1.0 2.0 0.00 0.00 0.00 66 1017.9
20210924062157 68 180 1.0 2.0 0.00 0.00 0.00 67 1017.9
20210924061657 68 203 1.0 1.0 0.00 0.00 0.00 67 1017.6
20210924061157 68 293 1.0 1.0 0.00 0.00 0.00 66 1017.6
20210924060657 68 203 0.0 2.0 0.00 0.00 0.00 66 1017.6
20210924060156 68 113 0.0 3.0 0.00 0.00 0.00 65 1017.6
20210924055656 68 135 1.0 5.0 0.00 0.00 0.00 65 1017.6
20210924055157 68 158 1.0 5.0 0.00 0.00 0.00 65 1017.6
20210924054656 69 225 1.0 3.0 0.00 0.00 0.00 65 1017.6
20210924054156 69 113 2.0 3.0 0.00 0.00 0.00 64 1017.6
20210924053656 69 68 1.0 3.0 0.00 0.00 0.00 64 1017.6
20210924053156 69 180 2.0 2.0 0.00 0.00 0.00 64 1017.6
20210924052656 69 135 1.0 2.0 0.00 0.00 0.00 64 1017.6
20210924052155 69 68 1.0 2.0 0.00 0.00 0.00 63 1017.6
20210924051655 69 203 1.0 2.0 0.00 0.00 0.00 63 1017.6
20210924051155 69 68 1.0 3.0 0.00 0.00 0.00 62 1017.6
20210924050655 70 203 1.0 3.0 0.00 0.00 0.00 63 1017.6
20210924050155 70 158 2.0 3.0 0.00 0.00 0.00 62 1017.6
20210924045655 70 135 1.0 3.0 0.00 0.00 0.00 62 1017.6
20210924045155 70 203 2.0 3.0 0.00 0.00 0.00 61 1017.6
20210924044654 70 113 2.0 3.0 0.00 0.00 0.00 61 1017.6
20210924044154 70 180 1.0 3.0 0.00 0.00 0.00 61 1017.6
20210924043654 70 135 3.0 3.0 0.00 0.00 0.00 61 1017.6
20210924043154 70 225 1.0 3.0 0.00 0.00 0.00 61 1017.6
20210924042654 70 135 1.0 4.0 0.00 0.00 0.00 60 1017.6
20210924042154 70 203 1.0 4.0 0.00 0.00 0.00 60 1017.9
20210924041654 70 225 1.0 4.0 0.00 0.00 0.00 60 1017.9
20210924041153 70 203 2.0 4.0 0.00 0.00 0.00 60 1017.9
20210924040653 70 180 1.0 5.0 0.00 0.00 0.00 59 1017.9
20210924040153 71 203 2.0 5.0 0.00 0.00 0.00 60 1017.9
20210924035654 71 225 2.0 5.0 0.00 0.00 0.00 59 1017.9
20210924035153 71 180 2.0 5.0 0.00 0.00 0.00 59 1017.9
20210924034653 71 248 1.0 3.0 0.00 0.00 0.00 59 1017.9
20210924034153 71 225 1.0 3.0 0.00 0.00 0.00 59 1017.9
20210924033653 71 158 1.0 3.0 0.00 0.00 0.00 58 1017.9
20210924033153 71 180 2.0 3.0 0.00 0.00 0.00 58 1017.9
20210924032652 71 180 2.0 3.0 0.00 0.00 0.00 58 1017.9
20210924032152 72 135 0.0 3.0 0.00 0.00 0.00 57 1017.9
20210924031652 72 158 1.0 4.0 0.00 0.00 0.00 57 1017.9
20210924031151 72 180 1.0 5.0 0.00 0.00 0.00 57 1017.9
20210924030651 72 135 1.0 5.0 0.00 0.00 0.00 56 1017.9
20210924030152 72 225 1.0 4.0 0.00 0.00 0.00 56 1017.9
20210924025652 72 203 1.0 4.0 0.00 0.00 0.00 56 1017.9
20210924025151 72 113 3.0 5.0 0.00 0.00 0.00 56 1017.9
20210924024651 73 68 1.0 5.0 0.00 0.00 0.00 55 1017.9
20210924024151 73 180 1.0 5.0 0.00 0.00 0.00 54 1017.9
20210924023651 73 135 3.0 5.0 0.00 0.00 0.00 54 1017.9
20210924023150 73 90 1.0 5.0 0.00 0.00 0.00 53 1017.9
20210924022651 73 180 1.0 5.0 0.00 0.00 0.00 53 1017.9
20210924022150 74 158 1.0 5.0 0.00 0.00 0.00 53 1017.6
20210924021650 74 135 1.0 5.0 0.00 0.00 0.00 52 1017.6
20210924021150 74 158 2.0 5.0 0.00 0.00 0.00 52 1017.6
20210924020650 74 180 3.0 5.0 0.00 0.00 0.00 51 1017.6
20210924020150 74 158 1.0 5.0 0.00 0.00 0.00 51 1017.6
20210924015650 74 113 3.0 6.0 0.00 0.00 0.00 51 1017.6
20210924015150 75 113 3.0 6.0 0.00 0.00 0.00 50 1017.6
20210924014650 75 135 3.0 5.0 0.00 0.00 0.00 49 1017.6